Regional Weather Roundup
Issued by NWS Bismarck, ND

Home | Current Version | Previous Version | Text Only | Print | Product List | Glossary On
Versions: 1 2 3 4 5 6 7 8 9 10 11 12 13 14 15 16 17 18 19 20 21 22 23 24 25 26 27 28 29 30 31 32 33 34 35 36 37 38 39 40 41 42 43 44 45 46 47 48 49 50
000
ASUS43 KBIS 210110
RWRBIS

NWR BROADCAST TEXT
NATIONAL WEATHER SERVICE BISMARCK ND
800 PM CDT FRI APR 20 2018

NOTE: "FAIR" INDICATES FEW OR NO CLOUDS BELOW 12,000 FEET WITH NO
SIGNIFICANT WEATHER AND/OR OBSTRUCTIONS TO VISIBILITY.


CITY           SKY/WX    TMP DP  RH WIND       PRES   REMARKS
WILLISTON      CLEAR     63  29  27 SE13      30.12S
MINOT          MOCLDY    55  34  45 SE16      30.20S
MINOT AFB      PTCLDY    54  37  52 SE16      30.19S
BISMARCK       PTCLDY    54  30  40 S16       30.26R
DICKINSON      CLEAR     54  34  46 S16       30.15R
GARRISON         N/A     50  31  48 S14       30.20R
HETTINGER ARPT MOCLDY    49  37  63 SE17G25   30.19R
JAMESTOWN      PTCLDY    51  36  56 S8        30.29F
CARRINGTON     CLOUDY    50  39  66 S10       30.32R
HAZEN          FAIR      55  30  38 SE16      30.22R
LINTON           N/A    N/A N/A N/A SE15      30.29R
MANDAN         FAIR      52  32  46 S21G26    30.25R
OAKES            N/A     50  37  62 S8        30.33S
RUGBY          FAIR      50  37  62 S12       30.25S
STANLEY          N/A     48  39  71 SE10G17   30.20S HAZE
TIOGA          FAIR      52  39  62 E13       30.17S
WATFORD CITY   FAIR      61  32  33 SE16      30.12F
$$

CITY           SKY/WX    TMP DP  RH WIND       PRES   REMARKS
GRAND FORKS    FAIR      48  38  68 S7        30.34F
GRAND FORKS AF FAIR      49  33  53 S8        30.34F
DEVILS LAKE    FAIR      45  33  63 SE8       30.30S
FARGO          FAIR      51  36  56 S12       30.35F
CANDO          FAIR      48  34  57 SE12      30.30S
CAVALIER         N/A     52  30  43 S7        30.33S
GRAFTON        FAIR      48  32  53 S9        30.36S
GWINNER          N/A     48  41  76 SE7       30.34S
LANGDON        FAIR      48  37  66 S12       30.31S
ROLLA          FAIR      50  36  57 S9        30.27S
WALHALLA       FAIR      54  30  40 S10       30.31F
$$

CITY           SKY/WX    TMP DP  RH WIND       PRES   REMARKS
ABERDEEN       MOCLDY    49  39  68 S8        30.35R
MOBRIDGE       CLOUDY    50  35  56 S12       30.26R
BUFFALO          N/A     48  38  68 S31G40    30.08R
RAPID CITY     CLOUDY    39  37  92 SE16      30.22R
GLASGOW        CLEAR     67  31  26 E5        30.06S
SIDNEY         FAIR      62  35  36 S16       30.10R
WOLF POINT     FAIR      69  33  26 VRB5      30.06F
GLENDIVE       FAIR      61  35  37 SE14      30.10R
MILES CITY     CLEAR     64  36  35 N5        30.05S
BAKER          CLEAR     54  35  48 SE21      30.12R
$$

CITY           SKY/WX    TMP DP  RH WIND       PRES   REMARKS
BILLINGS       MOSUNNY   61  37  41 E7        30.07R
GREAT FALLS    SUNNY     63  17  17 W6        30.05F
REGINA         PTCLDY    55  41  58 SE14      30.12F
ESTEVAN        PTCLDY    54  36  50 SE10      30.16S
$$




USA.gov is the U.S. government's official web portal to all federal, state and local government web resources and services.